Home > Weather > Post Falls > Past weeks

Flag for USA Past Weather in Post Falls, Idaho, USA — Yesterday and Last 2 Weeks

Now
77 °F

Sunny.


Feels Like: 78 °F
Forecast: 47 / 80 °F
Wind: 6 mph from North

Location: Coeur d'Alene Weather Reporting System

Current Time: Jun 26, 2016 at 2:05:22 PM

Latest Report: Jun 26, 2016 at 1:35 PM


Visibility: 10 mi

Pressure: 30.19 "Hg (27.98 "Hg at 664m altitude)

Humidity: 34%

Dew Point: 46 °F

Location of Post FallsLocation

Past Weather in Post Falls — Graph

°F

Post Falls Temperature Yesterday

Maximum temperature yesterday: 70 °F (at 3:55 PM)
Minimum temperature yesterday: 48 °F (at 1:35 AM)
Average temperature yesterday: 59 °F

High & Low Weather Summary for the Past Weeks

 TemperatureHumidityPressure
High82 °F (Jun 20, 3:15 PM)100% (Jun 24, 10:55 PM)30.39 "Hg (Jun 24, 10:55 PM)
Low39 °F (Jun 15, 3:15 AM)22% (Jun 22, 1:15 PM)29.76 "Hg (Jun 15, 7:55 PM)
Average58 °F56%30.03 "Hg
* Reported Jun 11 12:15 PM — Jun 26 12:55 PM, Post Falls, Weather by CustomWeather, © 2016

Note: Actual official high and low records may vary slightly from our data, if they occured in-between our weather recording intervals... More about our weather records

Advertising

Post Falls Weather History for the Previous 24 Hours

Scroll right to see more
 ConditionsComfort  
Time TempWeatherWind HumidityBarometerVisibility
12:55 PM
Sun, Jun 26
79 °FSunny.3 mph32%30.20 "Hg10 mi
12:35 PM75 °FSunny.6 mph39%30.20 "Hg10 mi
12:15 PM75 °FSunny.No wind39%30.20 "Hg10 mi
11:55 AM73 °FSunny.8 mph44%30.21 "Hg10 mi
11:35 AM73 °FSunny.7 mph41%30.21 "Hg10 mi
10:55 AM72 °FSunny.7 mph50%30.21 "Hg10 mi
10:35 AM70 °FSunny.6 mph50%30.21 "Hg10 mi
10:15 AM70 °FSunny.8 mph43%30.22 "Hg10 mi
9:55 AM68 °FSunny.8 mph53%30.22 "Hg10 mi
9:35 AM66 °FSunny.8 mph60%30.22 "Hg10 mi
8:55 AM64 °FSunny.6 mph64%30.23 "Hg10 mi
8:35 AM63 °FSunny.9 mph68%30.23 "Hg10 mi
8:15 AM61 °FSunny.10 mph68%30.22 "Hg10 mi
7:55 AM57 °FSunny.9 mph77%30.22 "Hg10 mi
7:35 AM57 °FSunny.9 mph77%30.22 "Hg10 mi
7:15 AM55 °FSunny.8 mph77%30.22 "Hg10 mi
6:55 AM54 °FSunny.7 mph82%30.21 "Hg10 mi
6:35 AM54 °FSunny.8 mph77%30.21 "Hg10 mi
6:15 AM54 °FSunny.6 mph77%30.21 "Hg10 mi
5:55 AM54 °FSunny.6 mph77%30.21 "Hg10 mi
5:35 AM52 °FClear.7 mph82%30.20 "Hg10 mi
5:15 AM48 °FClear.6 mph87%30.20 "Hg10 mi
4:55 AM48 °FClear.6 mph87%30.20 "Hg10 mi
4:35 AM48 °FClear.3 mph87%30.19 "Hg10 mi
4:15 AM48 °FClear.6 mph87%30.19 "Hg10 mi
3:55 AM50 °FClear.3 mph82%30.19 "Hg10 mi
3:35 AM52 °FClear.5 mph77%30.18 "Hg10 mi
3:15 AM52 °FClear.6 mph77%30.18 "Hg10 mi
2:55 AM52 °FClear.6 mph77%30.18 "Hg10 mi
2:35 AM52 °FClear.6 mph82%30.18 "Hg10 mi
2:15 AM52 °FClear.5 mph82%30.18 "Hg10 mi
1:55 AM52 °FClear.5 mph82%30.17 "Hg10 mi
1:35 AM52 °FClear.3 mph77%30.18 "Hg10 mi
1:15 AM52 °FClear.5 mph77%30.17 "Hg10 mi
12:55 AM52 °FClear.3 mph77%30.17 "Hg10 mi
12:35 AM52 °FClear.3 mph77%30.17 "Hg10 mi
12:15 AM54 °FClear.6 mph72%30.17 "Hg10 mi
11:55 PM
Sat, Jun 25
54 °FClear.3 mph77%30.17 "Hg10 mi
11:35 PM54 °FClear.6 mph67%30.17 "Hg10 mi
11:15 PM54 °FClear.6 mph77%30.17 "Hg10 mi
10:55 PM55 °FClear.6 mph72%30.16 "Hg10 mi
10:35 PM55 °FClear.3 mph72%30.16 "Hg10 mi
10:15 PM55 °FClear.5 mph72%30.16 "Hg10 mi
9:55 PM57 °FClear.6 mph72%30.16 "Hg10 mi
9:35 PM59 °FSunny.3 mph63%30.16 "Hg10 mi
9:15 PM61 °FSunny.3 mph59%30.15 "Hg10 mi
8:55 PM63 °FSunny.No wind56%30.14 "Hg10 mi
8:35 PM64 °FSunny.3 mph49%30.14 "Hg10 mi
8:15 PM68 °FSunny.No wind43%30.14 "Hg10 mi
7:55 PM68 °FSunny.No wind43%30.14 "Hg10 mi
7:35 PM70 °FSunny.No wind40%30.14 "Hg10 mi
7:15 PM68 °FSunny.No wind43%30.15 "Hg10 mi
6:55 PM68 °FSunny.No wind38%30.15 "Hg10 mi
6:35 PM70 °FSunny.No wind40%30.15 "Hg10 mi
6:15 PM70 °FSunny.3 mph40%30.16 "Hg10 mi
5:55 PM68 °FSunny.No wind46%30.16 "Hg10 mi
5:35 PM68 °FSunny.No wind43%30.17 "Hg10 mi
5:15 PM68 °FSunny.5 mph43%30.17 "Hg10 mi
4:55 PM70 °FSunny.5 mph43%30.18 "Hg10 mi
4:35 PM68 °FScattered clouds.3 mph40%30.18 "Hg10 mi
4:15 PM70 °FOvercast.3 mph40%30.18 "Hg10 mi
3:55 PM70 °FOvercast.6 mph43%30.19 "Hg10 mi
3:35 PM68 °FPartly sunny.7 mph46%30.19 "Hg10 mi
3:15 PM68 °FScattered clouds.5 mph43%30.19 "Hg10 mi
2:55 PM68 °FPartly sunny.8 mph46%30.20 "Hg10 mi
2:35 PM66 °FOvercast.6 mph49%30.20 "Hg10 mi
2:15 PM66 °FOvercast.7 mph46%30.21 "Hg10 mi
Weather by CustomWeather, © 2016

See weather overviewHow to use our weather pages